Home > Weather > Nagoya > Past weeks

Flag for Japan Past Weather in Nagoya, Japan — Yesterday and Last 2 Weeks

Now
81 °F

Partly cloudy.


Feels Like: 85 °F
Forecast: 75 / 89 °F
Wind: 9 mph from East

Location: Nagoya Airport

Current Time: Aug 25, 2016 at 5:02:56 AM

Latest Report: Aug 25, 2016 at 4:30 AM


Visibility: N/A

Pressure: 29.77 "Hg

Humidity: 79%

Dew Point: 73 °F

Location of NagoyaLocation

Past Weather in Nagoya — Graph

°F

Nagoya Temperature Yesterday

Maximum temperature yesterday: 88 °F (at 2:00 PM)
Minimum temperature yesterday: 81 °F (at 2:00 AM)
Average temperature yesterday: 83 °F

High & Low Weather Summary for the Past Weeks

 TemperatureHumidityPressure
High91 °F (Aug 22, 12:00 PM)94% (Aug 19, 10:00 PM)29.83 "Hg (Aug 19, 10:00 PM)
Low73 °F (Aug 11, 5:00 AM)43% (Aug 11, 5:00 PM)29.45 "Hg (Aug 16, 11:00 PM)
Average83 °F73%29.66 "Hg
* Reported Aug 10 4:00 AM — Aug 25 4:00 AM, Nagoya, Weather by CustomWeather, © 2016

Note: Actual official high and low records may vary slightly from our data, if they occured in-between our weather recording intervals... More about our weather records

Advertising

Nagoya Weather History for the Previous 24 Hours

Scroll right to see more
 ConditionsComfort  
Time TempWeatherWind HumidityBarometerVisibility
4:00 AM
Thu, Aug 25
81 °FPassing clouds.10 mph79%29.74 "HgN/A
3:30 AM81 °FPartly cloudy.12 mph79%29.74 "HgN/A
3:00 AM81 °FPartly cloudy.12 mph79%29.74 "HgN/A
2:30 AM81 °FPassing clouds.13 mph79%29.74 "HgN/A
2:00 AM81 °FPartly cloudy.13 mph79%29.74 "HgN/A
1:30 AM81 °FPartly cloudy.15 mph79%29.74 "HgN/A
1:00 AM82 °FScattered showers. Partly cloudy.15 mph74%29.74 "HgN/A
12:30 AM82 °FPartly cloudy.14 mph74%29.77 "HgN/A
12:00 AM81 °FScattered showers. Passing clouds.12 mph79%29.77 "HgN/A
11:30 PM
Wed, Aug 24
81 °FPartly cloudy.10 mph84%29.77 "HgN/A
11:00 PM81 °FPartly cloudy.14 mph79%29.77 "HgN/A
10:30 PM81 °FPassing clouds.14 mph79%29.77 "HgN/A
10:00 PM82 °FPartly cloudy.15 mph74%29.77 "HgN/A
9:30 PM82 °FScattered showers. Passing clouds.15 mph74%29.77 "HgN/A
9:00 PM82 °FPassing clouds.14 mph79%29.77 "HgN/A
8:30 PM82 °FScattered showers. Partly cloudy.13 mph79%29.77 "HgN/A
8:00 PM82 °FPassing clouds.12 mph79%29.77 "HgN/A
7:30 PM82 °FPassing clouds.12 mph79%29.74 "HgN/A
7:00 PM82 °FPassing clouds.12 mph79%29.74 "HgN/A
6:30 PM82 °FPassing clouds.13 mph74%29.74 "HgN/A
6:00 PM84 °FScattered clouds.13 mph70%29.74 "HgN/A
5:30 PM84 °FScattered showers. Scattered clouds.14 mph66%29.74 "HgN/A
5:00 PM84 °FPartly sunny.14 mph66%29.71 "HgN/A
4:30 PM86 °FScattered clouds.14 mph62%29.71 "HgN/A
4:00 PM86 °FScattered clouds.16 mph62%29.71 "HgN/A
3:30 PM86 °FPartly sunny.14 mph62%29.71 "HgN/A
3:00 PM86 °FBroken clouds.17 mph62%29.71 "HgN/A
2:30 PM86 °FPartly sunny.16 mph62%29.71 "HgN/A
2:00 PM88 °FPartly sunny.13 mph59%29.71 "HgN/A
1:30 PM86 °FScattered clouds.14 mph66%29.71 "HgN/A
1:00 PM86 °FScattered clouds.15 mph70%29.71 "HgN/A
12:30 PM86 °FScattered clouds.14 mph62%29.71 "HgN/A
12:00 PM86 °FPartly sunny.17 mph66%29.74 "HgN/A
11:30 AM86 °FScattered showers. Broken clouds.17 mph66%29.74 "HgN/A
11:00 AM84 °FScattered showers. Broken clouds.15 mph70%29.74 "HgN/A
10:30 AM84 °FRain showers. Broken clouds.16 mph70%29.74 "HgN/A
10:00 AM84 °FRain showers. Broken clouds.16 mph70%29.74 "HgN/A
9:30 AM86 °FRain showers. Broken clouds.16 mph66%29.74 "HgN/A
9:00 AM86 °FScattered showers. Broken clouds.14 mph66%29.74 "HgN/A
8:30 AM84 °FThunderstorms. Broken clouds.12 mph74%29.74 "HgN/A
8:00 AM82 °FSprinkles. Broken clouds.15 mph74%29.74 "HgN/A
7:30 AM82 °FScattered showers. Partly sunny.15 mph74%29.74 "HgN/A
7:00 AM82 °FScattered showers. Broken clouds.8 mph74%29.74 "HgN/A
6:30 AM82 °FScattered showers. Broken clouds.9 mph74%29.71 "HgN/A
6:00 AM81 °FScattered showers. Scattered clouds.9 mph79%29.71 "HgN/A
5:30 AM81 °FScattered clouds.9 mph79%29.71 "HgN/A
5:00 AM81 °FPassing clouds.10 mph79%29.68 "HgN/A
Weather by CustomWeather, © 2016

See weather overviewHow to use our weather pages